TimeCDT,TemperatureF,Dew PointF,Humidity,Sea Level PressureIn,VisibilityMPH,Wind Direction,Wind SpeedMPH,Gust SpeedMPH,PrecipitationIn,Events,Conditions,WindDirDegrees,DateUTC
12:00 AM,-4.0,-13.0,65,30.01,15.0,NNW,8.1,-,N/A,,Mostly Cloudy,340,2013-05-11 05:00:00
1:00 AM,-6,-14,55,30.02,15,NNE,10.4,,,Snow,Snow,20,2013-05-11 06:00:00
1:00 AM,-5.8,-13.0,71,30.02,15.0,NNE,10.4,-,N/A,,Mostly Cloudy,20,2013-05-11 06:00:00
2:00 AM,-7.6,-14.8,71,30.02,15.0,North,9.2,-,N/A,,Mostly Cloudy,350,2013-05-11 07:00:00
3:00 AM,-4.0,-11.2,71,30.03,15.0,NW,6.9,-,N/A,,Overcast,320,2013-05-11 08:00:00
3:44 AM,-9999,-9999,N/A,-9999,15.0,NW,6.9,-,N/A,,Overcast,320,2013-05-11 08:44:00
4:00 AM,-4.0,-11.2,71,30.03,15.0,NW,6.9,-,N/A,Snow,Light Snow,320,2013-05-11 09:00:00
5:00 AM,-4.0,-11.2,71,30.04,15.0,NW,8.1,-,N/A,Snow,Light Snow,310,2013-05-11 10:00:00
6:00 AM,-2.2,-11.2,66,30.04,15.0,NNW,5.8,-,N/A,Snow,Light Snow,330,2013-05-11 11:00:00
7:00 AM,-3,-10,59,30.03,15,West,2.3,,,Snow,Light Snow,280,2013-05-11 12:00:00
7:00 AM,-2.2,-9.4,71,30.03,15.0,West,2.3,-,N/A,Snow,Light Snow,280,2013-05-11 12:00:00
8:00 AM,-2.2,-9.4,71,30.03,15.0,Calm,Calm,-,N/A,Snow,Light Snow,0,2013-05-11 13:00:00
9:00 AM,-2.2,-9.4,71,30.02,15.0,NW,2.3,-,N/A,Snow,Light Snow,310,2013-05-11 14:00:00
9:46 AM,-9999,-9999,N/A,-9999,15.0,NNW,3.5,-,N/A,,Unknown,330,2013-05-11 14:46:00
10:00 AM,-0.4,-9.4,66,30.02,15.0,North,4.6,-,N/A,Snow,Light Snow,10,2013-05-11 15:00:00
11:00 AM,-0.4,-9.4,66,30.03,15.0,North,8.1,-,N/A,Snow,Light Snow,360,2013-05-11 16:00:00
12:00 PM,-0.4,-9.4,66,30.03,15.0,North,4.6,-,N/A,Snow,Light Snow,360,2013-05-11 17:00:00
1:00 PM,-1,-9,56,30.03,15,NW,3.5,,,Snow,Light Snow,320,2013-05-11 18:00:00
1:00 PM,-0.4,-9.4,66,30.03,15.0,NW,3.5,-,N/A,Snow,Light Snow,320,2013-05-11 18:00:00
2:00 PM,-0.4,-9.4,66,30.04,15.0,North,6.9,-,N/A,Snow,Light Snow,360,2013-05-11 19:00:00
3:00 PM,-0.4,-9.4,66,30.04,15.0,NNW,8.1,-,N/A,Snow,Light Snow,340,2013-05-11 20:00:00
3:42 PM,-9999,-9999,N/A,-9999,15.0,NNW,6.9,-,N/A,,Mostly Cloudy,340,2013-05-11 20:42:00
4:00 PM,-0.4,-9.4,66,30.05,15.0,NNW,5.8,-,N/A,,Mostly Cloudy,340,2013-05-11 21:00:00
5:00 PM,-0.4,-9.4,66,30.06,15.0,North,8.1,-,N/A,,Mostly Cloudy,360,2013-05-11 22:00:00
6:00 PM,-0.4,-11.2,60,30.07,15.0,North,8.1,-,N/A,,Scattered Clouds,10,2013-05-11 23:00:00
7:00 PM,-2,-10,54,30.07,15,North,9.2,,,Snow,Snow,10,2013-05-12 00:00:00
7:00 PM,-2.2,-9.4,71,30.07,15.0,North,9.2,-,N/A,,Partly Cloudy,10,2013-05-12 00:00:00
7:35 PM,-9999,-9999,N/A,-9999,15.0,North,8.1,-,N/A,,Partly Cloudy,360,2013-05-12 00:35:00
8:00 PM,-4.0,-11.2,71,30.08,15.0,North,8.1,-,N/A,,Mostly Cloudy,10,2013-05-12 01:00:00
8:40 PM,-9999,-9999,N/A,-9999,15.0,North,8.1,-,N/A,,Mostly Cloudy,350,2013-05-12 01:40:00
9:00 PM,-4.0,-11.2,71,30.07,15.0,North,6.9,-,N/A,,Mostly Cloudy,360,2013-05-12 02:00:00
10:00 PM,-5.8,-13.0,71,30.08,15.0,North,5.8,-,N/A,,Partly Cloudy,360,2013-05-12 03:00:00
11:00 PM,-5.8,-13.0,71,30.09,15.0,North,4.6,-,N/A,,Partly Cloudy,10,2013-05-12 04:00:00